STARLINK-35986

Last updated on Mon Dec 15 2025 00:02:12 GMT+0000 (Coordinated Universal Time)

1 66853U 25281F 25348.25003472 -.01201082 00000+0 -49585-2 0 9999 2 66853 43.0006 113.0091 0001613 270.9089 262.1424 15.87307633 1649
UTC large
Height (km)
Speed (km/s)
/
Latitude / Longitude
Inclination (degrees)
Orbital Period (minutes)
Azimuth
Elevation
Range (km)
Doppler Factor

Next 0 passes for location: London (51.5072 / 0.1276)

Sorry there are no passes over London.